Regional Weather Roundup
Issued by NWS

Home | Current Version | Previous Version | Text Only | Print | Product List | Glossary On
Versions: 1 2 3 4 5 6 7 8 9 10 11 12 13 14 15 16 17 18 19 20 21 22 23 24 25 26 27 28 29 30 31 32 33 34 35 36 37 38 39 40 41 42 43 44 45 46 47 48 49 50
000
ASUS43 KMKX 011820
RWRWI

WISCONSIN REGIONAL WEATHER ROUNDUP
NATIONAL WEATHER SERVICE MILWAUKEE/SULLIVAN WI
1200 PM CST SUN MAR 01 2015

NOTE: "FAIR" INDICATES FEW OR NO CLOUDS BELOW 12,000 FEET WITH NO
SIGNIFICANT WEATHER AND/OR OBSTRUCTIONS TO VISIBILITY.

WIZ001-002-006>008-014>016-023>028-011900-
NORTHWEST WISCONSIN

CITY           SKY/WX    TMP DP  RH WIND       PRES   REMARKS
SUPERIOR ARPT  SUNNY     23   6  50 W10G18    30.17S WCI  12
6HR MIN TEMP:  14; 6HR MAX TEMP:  23;

ASHLAND        PTSUNNY   21   8  57 SW15      30.15F WCI   8
6HR MIN TEMP:  12; 6HR MAX TEMP:  22; 6HR PCP: TRACE;

HAYWARD        CLOUDY    20   9  62 W13G18    30.15S WCI   7
6HR MIN TEMP:  13; 6HR MAX TEMP:  20; 6HR PCP: TRACE;

SIREN          SUNNY     22   5  47 W12G20    30.20S WCI  11
6HR MIN TEMP:  16; 6HR MAX TEMP:  22;

CUMBERLAND     LGT SNOW  21   9  58 W14       30.19R WCI   8
RICE LAKE      CLOUDY    22  11  62 SW13      30.21S WCI   9
6HR MIN TEMP:  13; 6HR MAX TEMP:  21;

CHETEK         CLOUDY    20  12  68 SW10      30.21S WCI   9
6HR MIN TEMP:  12; 6HR MAX TEMP:  21;

LADYSMITH      LGT SNOW  19  14  78 SW10G16   30.19S WCI   8
6HR MIN TEMP:  10; 6HR MAX TEMP:  19;

EAU CLAIRE     LGT SNOW  19  12  74 SW12      30.23F WCI   7
6HR MIN TEMP:  13; 6HR MAX TEMP:  19; 6HR PCP: TRACE;

MENOMONIE      MOSUNNY   24  11  58 SW13      30.24F WCI  12
6HR MIN TEMP:  12; 6HR MAX TEMP:  24;

NEW RICHMOND   MOSUNNY   21   8  55 W12       30.24R WCI  10
6HR MIN TEMP:  15; 6HR MAX TEMP:  22;

OSCEOLA        MOSUNNY   23   8  52 W10       30.27S WCI  12
6HR MIN TEMP:  16; 6HR MAX TEMP:  23;

$$

WIZ003>005-009-010-017-018-011900-
NORTH CENTRAL WISCONSIN

CITY           SKY/WX    TMP DP  RH WIND       PRES   REMARKS
MANITOWISH WTR LGT SNOW  17  10  75 SW9       30.09F WCI   5
6HR MIN TEMP:   9; 6HR MAX TEMP:  17;

ARBOR VITAE    LGT SNOW  17  10  74 SW12      30.11S WCI   4
6HR MIN TEMP:  10; 6HR MAX TEMP:  17;

WOODRUFF       LGT SNOW  17  10  74 SW12      30.11S WCI   4
6HR MIN TEMP:  10; 6HR MAX TEMP:  17;

RHINELANDER    LGT SNOW  16   9  74 W13       30.13S WCI   2
6HR MIN TEMP:   7; 6HR MAX TEMP:  16; 6HR PCP: TRACE;

EAGLE RIVER    LGT SNOW  17   8  69 W16       30.10F WCI   1
6HR MIN TEMP:   8; 6HR MAX TEMP:  17;

LAND O LAKES   LGT SNOW  19  11  73 SW8       30.09F WCI   8
6HR MIN TEMP:   7; 6HR MAX TEMP:  19;

PHILLIPS       LGT SNOW  17  10  77 SW9       30.13S WCI   5
6HR MIN TEMP:   9; 6HR MAX TEMP:  16;

TOMAHAWK       LGT SNOW  17  10  72 CALM      30.15F
6HR MIN TEMP:   8; 6HR MAX TEMP:  17;

MEDFORD        LGT SNOW  16  10  79 W13       30.17S WCI   2
6HR MIN TEMP:   8; 6HR MAX TEMP:  16;

MERRILL        LGT SNOW  17  11  77 W14       30.18S WCI   3
6HR MIN TEMP:   9; 6HR MAX TEMP:  17;

$$

WIZ029-030-035-036-043>047-011900-
CENTRAL WISCONSIN

CITY           SKY/WX    TMP DP  RH WIND       PRES   REMARKS
WAUSAU         LGT SNOW  16  10  77 SW13      30.18F WCI   2
6HR MIN TEMP:   8; 6HR MAX TEMP:  16; 6HR PCP: TRACE;

MOSINEE        FLURRIES  16  12  86 SW12      30.21F WCI   3
MARSHFIELD     LGT SNOW  17  11  77 W12       30.21S WCI   4
6HR MIN TEMP:   9; 6HR MAX TEMP:  17; 6HR PCP: TRACE;

STEVENS POINT  PTSUNNY   18  10  71 W6        30.22F WCI  10
6HR MIN TEMP:   8; 6HR MAX TEMP:  18;

WAUPACA        PTSUNNY   28  15  56 SW10      30.23F WCI  19
6HR MIN TEMP:   7; 6HR MAX TEMP:  28;

WAUTOMA        PTSUNNY   27  15  60 W13       30.24F WCI  16
6HR MIN TEMP:  -1; 6HR MAX TEMP:  27;

WISC RAPIDS    PTSUNNY   21  11  65 W14       30.24F WCI   8
6HR MIN TEMP:   7; 6HR MAX TEMP:  21;

CAMP DOUGLAS   PTSUNNY   23  16  74 W10       30.26S WCI  12
$$

WIZ011>013-019>022-031-037>040-048>050-011900-
NORTHEAST WISCONSIN

CITY           SKY/WX    TMP DP  RH WIND       PRES   REMARKS
ANTIGO         LGT SNOW  16  11  80 SW16      30.15F WCI   1
6HR MIN TEMP:   5; 6HR MAX TEMP:  16;

SHAWANO        PTSUNNY   24  13  63 SW10      30.22F WCI  13
6HR MIN TEMP:  11; 6HR MAX TEMP:  24;

OCONTO         MOSUNNY   25  14  63 SW12      30.22F WCI  14
6HR MIN TEMP:   8; 6HR MAX TEMP:  25;

STURGEON BAY   FAIR      25  12  58 SW14G21   30.23F WCI  13
6HR MIN TEMP:  10; 6HR MAX TEMP:  25;

GREEN BAY      MOSUNNY   25  15  66 W14       30.24F WCI  13
6HR MIN TEMP:   8; 6HR MAX TEMP:  25;

MANITOWOC      MOSUNNY   28  15  58 SW8       30.26F WCI  20
6HR MIN TEMP:   9; 6HR MAX TEMP:  29;

APPLETON       PTSUNNY   25  14  63 SW13      30.24F WCI  13
CLINTONVILLE   PTSUNNY   25  14  63 SW9       30.21F WCI  15
OSHKOSH        MOSUNNY   25  14  63 SW10G18   30.25F WCI  15
6HR MIN TEMP:   7; 6HR MAX TEMP:  25;

$$

WIZ032>034-041-042-053>061-011900-
SOUTHWEST WISCONSIN

CITY           SKY/WX    TMP DP  RH WIND       PRES   REMARKS
LA CROSSE      CLOUDY    24  15  68 W8        30.29F WCI  15
6HR MIN TEMP:  10; 6HR MAX TEMP:  24; 6HR PCP: TRACE;

SPARTA         FLURRIES  20  15  78 W10       30.28F WCI   9
6HR MIN TEMP:   2; 6HR MAX TEMP:  20;

VIROQUA        CLOUDY    21  16  81 W13       30.25S WCI   8
6HR MIN TEMP:   8; 6HR MAX TEMP:  21;

BOSCOBEL       MIX PCPN  26  15  63 SW13      30.30F WCI  15
6HR MIN TEMP:   4; 6HR MAX TEMP:  26;

PRAIRIE DU CHI PTSUNNY   25  15  66 SW12      30.32F WCI  14
6HR MIN TEMP:   9; 6HR MAX TEMP:  25;

PLATTEVILLE    PTSUNNY   23  20  88 SW15      30.31F WCI  10
6HR MIN TEMP:  11; 6HR MAX TEMP:  23;

$$

WIZ056-057-062-063-064-067-068-011900-
SOUTH CENTRAL WISCONSIN

CITY           SKY/WX    TMP DP  RH WIND       PRES   REMARKS
REEDSBURG      MOSUNNY   23  15  71 SW9       30.27F WCI  13
6HR MIN TEMP:  10; 6HR MAX TEMP:  23;

BARABOO/DELLS  MOSUNNY   22  14  70 SW12      30.26F WCI  11
6HR MIN TEMP:   9; 6HR MAX TEMP:  22;

LONE ROCK      PTSUNNY   24  14  65 SW8       30.30F WCI  15
6HR MIN TEMP:   4; 6HR MAX TEMP:  24;

MINERAL POINT  MOSUNNY   27  18  69 SW9       30.28F WCI  17
MADISON        CLOUDY    22  13  68 VRB7G16   30.30S WCI  13
6HR MIN TEMP:  14; 6HR MAX TEMP:  23; 6HR PCP: TRACE;

MIDDLETON      MOSUNNY   27  13  56 SW12G18   30.29F WCI  17
6HR MIN TEMP:  15; 6HR MAX TEMP:  27;

WATERTOWN      MOSUNNY   23  14  70 SW8       30.29F WCI  14
6HR MIN TEMP:  12; 6HR MAX TEMP:  23;

MONROE         CLOUDY    23  18  80 S9        30.30F WCI  13
JANESVILLE     PTSUNNY   25  14  63 SW8       30.33F WCI  16
$$

WIZ051-052-058>065-066-070>072-011900-
SOUTHEAST WISCONSIN

CITY           SKY/WX    TMP DP  RH WIND       PRES   REMARKS
MILWAUKEE      PTSUNNY   23  13  65 VRB6      30.31F HAZE    WCI  16
6HR MIN TEMP:  14; 6HR MAX TEMP:  23;

WAUKESHA       PTSUNNY   21  12  68 SW5       30.31F WCI  15
MILWAUKEE/TIMM MOSUNNY   21  12  68 W7        30.31F WCI  13
RACINE         PTSUNNY   22  14  71 SW12      30.34F WCI  10
6HR MIN TEMP:  14; 6HR MAX TEMP:  22;

BURLINGTON     MOSUNNY   22  13  68 W8        30.32F WCI  13
6HR MIN TEMP:   8; 6HR MAX TEMP:  23;

KENOSHA        CLOUDY    23  16  74 SW10      30.32F WCI  12
6HR MIN TEMP:  13; 6HR MAX TEMP:  23;

FOND DU LAC    MOSUNNY   25  13  60 SW12      30.26F WCI  14
6HR MIN TEMP:   9; 6HR MAX TEMP:  25;

SHEBOYGAN      FAIR      24  14  65 SW12      30.27F WCI  13
6HR MIN TEMP:  10; 6HR MAX TEMP:  24;

WEST BEND      MOSUNNY   27  12  54 W12       30.27F WCI  16
JUNEAU         MOSUNNY   23  14  68 SW12      30.29F WCI  12
6HR MIN TEMP:  10; 6HR MAX TEMP:  23;

$$

LSZ147-162-011900-
LAKE SUPERIOR

STATION/POSITION TIME  TEMP    WIND        PRES    WAVE
                       AIR SEA DIR/SP/G            HT/PER
                 (UTC) (F)     (DEG/KT/KT) (MB)    (FT/S)
DEVILS ISLAND    1800   19     230/ 19/ 23 1021.3F
PORT WING        1740   20     250/ 10/ 18 1021.3S
SAXON HARBOR     1700   20     210/  9/ 13 1021.0F
$$

LMZ867-665-643>646-011900-
LAKE MICHIGAN

STATION/POSITION TIME  TEMP    WIND        PRES    WAVE
                       AIR SEA DIR/SP/G            HT/PER



USA.gov is the U.S. government's official web portal to all federal, state and local government web resources and services.